Location: Brivio
(45.7333°N, 9.4500°E)
Time: 22:37:00
(UTC+00:00)

STARLINK-50 - Pass Details

Date: 18 October 2019
Orbit: 549 x 551 km, 53.0° (Epoch: 20 November)

Event Time Altitude Azimuth Distance (km) Brightness Sun altitude
Rises 17:05:31 0° 258° (WSW) 2,711 9.8 -6.6°
Reaches altitude 10° 17:07:49 10° 265° (W) 1,820 8.1 -7.0°
Maximum altitude 17:11:49 45° 339° (NNW) 753 4.4 -7.7°
Drops below altitude 10° 17:15:48 10° 53° (NE) 1,826 5.8 -8.4°
Enters shadow 17:16:17 - 55° (NE) 2,005 6.0 -8.5°
